| time (UTC) | temp C | wind direction | speed KPH | gust KPH | rain 1hr cm | rain 24hr cm | rain mn cm | humidity % | barometer mb |
| 20260505130147 | 17 | 177 | 1.6 | 6.4 | 0.00 | 0.00 | 0.00 | 77 | 1020.3 |
| 20260505124543 | 16 | 321 | 0.0 | 6.4 | 0.00 | 0.00 | 0.00 | 78 | 1020.3 |
| 20260505123101 | 15 | 8 | 0.0 | 1.6 | 0.00 | 0.00 | 0.00 | 81 | 1020.5 |
| 20260505121540 | 14 | 83 | 0.0 | 1.6 | 0.00 | 0.00 | 0.00 | 86 | 1020.4 |
| 20260505120138 | 13 | 350 | 0.0 | 0.0 | 0.00 | 0.00 | 0.00 | 90 | 1020.3 |
| 20260505114548 | 11 | 350 | 0.0 | 0.0 | 0.00 | 0.00 | 0.00 | 94 | 1020.2 |
| 20260505113038 | 10 | 350 | 0.0 | 0.0 | 0.00 | 0.00 | 0.00 | 94 | 1020.1 |
| 20260505111551 | 9 | 350 | 0.0 | 0.0 | 0.00 | 0.00 | 0.00 | 94 | 1020.2 |
| 20260505110132 | 8 | 350 | 0.0 | 0.0 | 0.00 | 0.00 | 0.00 | 94 | 1019.9 |
| 20260505101544 | 8 | 350 | 0.0 | 0.0 | 0.00 | 0.00 | 0.00 | 94 | 1019.3 |
| 20260505100004 | 9 | 350 | 0.0 | 0.0 | 0.00 | 0.00 | 0.00 | 93 | 1019.2 |
| 20260505094559 | 9 | 350 | 0.0 | 0.0 | 0.00 | 0.00 | 0.00 | 93 | 1019.1 |
| 20260505093057 | 10 | 350 | 0.0 | 0.0 | 0.00 | 0.00 | 0.00 | 92 | 1019.0 |
| 20260505091554 | 10 | 350 | 0.0 | 0.0 | 0.00 | 0.00 | 0.00 | 91 | 1018.9 |
| 20260505090154 | 10 | 350 | 0.0 | 0.0 | 0.00 | 0.00 | 0.00 | 90 | 1019.0 |
| 20260505084554 | 11 | 350 | 0.0 | 0.0 | 0.00 | 0.00 | 0.00 | 89 | 1018.8 |
| 20260505083101 | 11 | 350 | 0.0 | 0.0 | 0.00 | 0.00 | 0.00 | 87 | 1018.8 |
| 20260505081552 | 12 | 350 | 0.0 | 0.0 | 0.00 | 0.00 | 0.00 | 85 | 1018.7 |
| 20260505080142 | 12 | 350 | 0.0 | 0.0 | 0.00 | 0.00 | 0.00 | 84 | 1018.7 |
| 20260505074544 | 13 | 350 | 0.0 | 0.0 | 0.00 | 0.00 | 0.00 | 82 | 1018.7 |
| 20260505073038 | 13 | 350 | 0.0 | 0.0 | 0.00 | 0.00 | 0.00 | 80 | 1018.6 |
| 20260505071540 | 14 | 341 | 0.0 | 0.0 | 0.00 | 0.00 | 0.00 | 79 | 1018.4 |
| 20260505070137 | 14 | 302 | 0.0 | 0.0 | 0.00 | 0.00 | 0.00 | 78 | 1018.4 |
| 20260505064600 | 15 | 41 | 0.0 | 0.0 | 0.00 | 0.00 | 0.00 | 76 | 1018.3 |
| 20260505063053 | 15 | 125 | 0.0 | 3.2 | 0.00 | 0.00 | 0.00 | 75 | 1018.4 |
| 20260505061548 | 15 | 330 | 0.0 | 6.4 | 0.00 | 0.00 | 0.00 | 74 | 1018.3 |
| 20260505060147 | 15 | 75 | 0.0 | 1.6 | 0.00 | 0.00 | 0.00 | 75 | 1018.4 |
| 20260505054555 | 16 | 318 | 0.0 | 3.2 | 0.00 | 0.00 | 0.00 | 74 | 1018.4 |
| 20260505053043 | 16 | 102 | 0.0 | 3.2 | 0.00 | 0.00 | 0.00 | 73 | 1018.4 |
| 20260505051541 | 16 | 242 | 0.0 | 3.2 | 0.00 | 0.00 | 0.00 | 72 | 1018.5 |
| 20260505050140 | 16 | 308 | 0.0 | 4.8 | 0.00 | 0.00 | 0.00 | 72 | 1018.6 |
| 20260505041611 | 16 | 104 | 0.0 | 8.0 | 0.00 | 0.00 | 0.00 | 71 | 1018.7 |
| 20260505040153 | 16 | 304 | 0.0 | 4.8 | 0.00 | 0.00 | 0.00 | 70 | 1018.6 |
| 20260505034547 | 16 | 95 | 0.0 | 1.6 | 0.00 | 0.00 | 0.00 | 70 | 1018.7 |
| 20260505033044 | 16 | 93 | 0.0 | 0.0 | 0.00 | 0.00 | 0.00 | 68 | 1018.7 |
| 20260505031544 | 16 | 92 | 0.0 | 0.0 | 0.00 | 0.00 | 0.00 | 66 | 1018.7 |
| 20260505030145 | 16 | 93 | 0.0 | 1.6 | 0.00 | 0.00 | 0.00 | 64 | 1018.7 |
| 20260505024544 | 16 | 51 | 0.0 | 1.6 | 0.00 | 0.00 | 0.00 | 65 | 1018.7 |
| 20260505023044 | 15 | 270 | 0.0 | 0.0 | 0.00 | 0.00 | 0.00 | 64 | 1018.6 |
| 20260505021542 | 16 | 270 | 0.0 | 0.0 | 0.00 | 0.00 | 0.00 | 61 | 1018.4 |
| 20260505020135 | 16 | 270 | 0.0 | 1.6 | 0.00 | 0.00 | 0.00 | 61 | 1018.3 |
| 20260505014551 | 16 | 270 | 0.0 | 0.0 | 0.00 | 0.00 | 0.00 | 61 | 1018.2 |
| 20260505013052 | 16 | 270 | 0.0 | 0.0 | 0.00 | 0.00 | 0.00 | 61 | 1017.9 |
| 20260505011550 | 16 | 270 | 0.0 | 0.0 | 0.00 | 0.00 | 0.00 | 60 | 1017.7 |
| 20260505010149 | 16 | 269 | 0.0 | 0.0 | 0.00 | 0.00 | 0.00 | 61 | 1017.5 |
| 20260505004543 | 17 | 270 | 0.0 | 0.0 | 0.00 | 0.00 | 0.00 | 62 | 1017.3 |
| 20260505003041 | 18 | 270 | 0.0 | 0.0 | 0.00 | 0.00 | 0.00 | 58 | 1017.1 |
| 20260505001549 | 19 | 270 | 0.0 | 0.0 | 0.00 | 0.00 | 0.00 | 54 | 1016.9 |
| 20260505000141 | 20 | 270 | 0.0 | 0.0 | 0.00 | 0.00 | 0.00 | 49 | 1016.9 |
| 20260504234535 | 21 | 270 | 0.0 | 0.0 | 0.00 | 0.00 | 0.00 | 46 | 1016.8 |
| 20260504233036 | 22 | 270 | 0.0 | 0.0 | 0.00 | 0.00 | 0.00 | 42 | 1016.7 |
| 20260504231553 | 23 | 269 | 0.0 | 0.0 | 0.00 | 0.00 | 0.00 | 39 | 1016.6 |
| 20260504230135 | 24 | 270 | 0.0 | 3.2 | 0.00 | 0.00 | 0.00 | 34 | 1016.6 |
| 20260504224548 | 25 | 250 | 0.0 | 1.6 | 0.00 | 0.00 | 0.00 | 32 | 1016.6 |
| 20260504223047 | 25 | 114 | 0.0 | 8.0 | 0.00 | 0.00 | 0.00 | 33 | 1016.7 |
| 20260504221556 | 26 | 258 | 1.6 | 8.0 | 0.00 | 0.00 | 0.00 | 32 | 1016.6 |
| 20260504220146 | 27 | 272 | 0.0 | 9.7 | 0.00 | 0.00 | 0.00 | 31 | 1016.7 |
| 20260504214543 | 27 | 293 | 0.0 | 8.0 | 0.00 | 0.00 | 0.00 | 30 | 1016.7 |
| 20260504213041 | 28 | 22 | 0.0 | 1.6 | 0.00 | 0.00 | 0.00 | 29 | 1016.7 |
| 20260504211548 | 27 | 298 | 0.0 | 12.9 | 0.00 | 0.00 | 0.00 | 32 | 1016.8 |
| 20260504210138 | 27 | 123 | 0.0 | 3.2 | 0.00 | 0.00 | 0.00 | 32 | 1016.8 |
| 20260504204603 | 28 | 85 | 0.0 | 6.4 | 0.00 | 0.00 | 0.00 | 34 | 1016.9 |
| 20260504203055 | 28 | 251 | 0.0 | 1.6 | 0.00 | 0.00 | 0.00 | 31 | 1017.0 |
| 20260504201552 | 27 | 108 | 0.0 | 4.8 | 0.00 | 0.00 | 0.00 | 28 | 1017.1 |
| 20260504200150 | 28 | 65 | 0.0 | 8.0 | 0.00 | 0.00 | 0.00 | 34 | 1017.2 |
| 20260504194603 | 27 | 92 | 0.0 | 9.7 | 0.00 | 0.00 | 0.00 | 31 | 1017.4 |
| 20260504193046 | 27 | 335 | 3.2 | 9.7 | 0.00 | 0.00 | 0.00 | 29 | 1017.6 |
| 20260504191549 | 27 | 127 | 0.0 | 4.8 | 0.00 | 0.00 | 0.00 | 30 | 1017.7 |
| 20260504190141 | 27 | 168 | 0.0 | 8.0 | 0.00 | 0.00 | 0.00 | 30 | 1017.9 |
| 20260504184541 | 27 | 58 | 0.0 | 4.8 | 0.00 | 0.00 | 0.00 | 31 | 1018.1 |
| 20260504183035 | 27 | 287 | 0.0 | 4.8 | 0.00 | 0.00 | 0.00 | 30 | 1018.2 |
| 20260504181542 | 26 | 283 | 0.0 | 8.0 | 0.00 | 0.00 | 0.00 | 33 | 1018.6 |
| 20260504180217 | 27 | 40 | 1.6 | 9.7 | 0.00 | 0.00 | 0.00 | 31 | 1018.5 |
| 20260504174554 | 26 | 176 | 0.0 | 6.4 | 0.00 | 0.00 | 0.00 | 34 | 1018.7 |
| 20260504173100 | 26 | 323 | 1.6 | 9.7 | 0.00 | 0.00 | 0.00 | 32 | 1018.8 |
| 20260504171548 | 25 | 170 | 1.6 | 8.0 | 0.00 | 0.00 | 0.00 | 35 | 1019.0 |
| 20260504170145 | 25 | 69 | 0.0 | 6.4 | 0.00 | 0.00 | 0.00 | 36 | 1019.3 |
| 20260504150149 | 19 | 78 | 0.0 | 6.4 | 0.00 | 0.00 | 0.00 | 61 | 1020.6 |
| 20260504140141 | 16 | 271 | 0.0 | 4.8 | 0.00 | 0.00 | 0.00 | 69 | 1020.8 |